Theta_e
327 329 330 330 332 333 333 334 333 332 331 328 327 326 325 325 326 325 325 323 322 323 325 324 324 327 325 325 328 326 324 329 320 324 330 335 339 336 336 337 336 337 336
324 326 328 330 331 331 331 331 331 329 329 327 326 324 323 322 323 323 320 319 319 319 320 321 321 320 323 324 323 325 326 327 326 320 328 330 334 337 337 336 336 338 339
320 321 322 322 322 325 327 328 327 326 325 325 324 323 321 320 321 321 319 319 319 319 319 319 320 320 320 319 321 322 322 323 326 323 319 327 332 332 332 334 335 335 334
315 316 317 318 319 319 320 320 320 320 320 320 321 321 320 320 319 319 318 319 319 319 320 321 320 319 319 319 319 320 322 324 324 320 321 321 326 332 329 326 326 328 327
310 310 312 313 314 314 314 315 316 317 316 317 317 317 318 319 317 319 319 319 319 319 320 319 318 318 317 317 317 320 321 322 320 318 319 319 321 323 322 325 323 326 325
309 308 309 310 310 311 312 312 313 313 314 314 314 314 314 315 308 306 313 320 319 318 315 315 315 315 315 311 311 312 316 321 319 317 318 317 318 319 323 324 320 314 310
305 305 305 306 305 306 307 307 308 308 309 309 309 311 312 314 305 303 304 316 319 318 316 314 312 310 311 313 312 310 311 308 310 319 317 319 318 321 319 314 314 314 312
303 303 303 303 303 304 304 304 305 305 306 305 306 308 309 310 302 301 301 312 315 316 315 314 313 312 312 312 312 316 318 321 324 322 317 319 322 321 315 316 315 321 322
300 301 301 301 300 301 301 301 302 301 302 302 303 304 305 306 300 298 301 308 309 311 313 313 312 312 305 300 312 312 316 320 316 306 304 302 303 304 312 317 316 315 314
299 299 299 300 299 299 299 299 299 300 300 300 300 302 301 303 299 297 299 303 304 306 311 312 304 306 300 299 309 312 314 318 321 315 311 305 303 305 306 321 320 315 316
298 298 298 298 298 297 297 298 298 298 298 297 296 297 298 300 301 296 296 301 302 303 306 307 308 299 297 296 297 312 315 316 312 315 315 311 312 313 314 321 326 321 317
296 295 295 296 296 296 295 296 296 294 292 294 295 296 298 300 298 297 295 295 299 302 303 304 304 298 297 296 297 299 299 303 314 313 312 312 312 314 318 322 324 324 325
294 294 295 294 292 291 291 290 290 292 292 293 293 293 295 297 300 297 295 294 295 298 302 301 297 296 296 298 295 299 298 310 314 311 312 313 314 318 322 321 323 325 325
292 292 292 291 290 291 291 291 290 290 290 290 291 292 293 295 297 298 299 302 297 299 299 302 301 299 299 300 304 302 307 312 312 313 314 317 320 319 319 321 319 321 321
288 288 289 289 289 290 290 290 290 291 291 290 290 291 291 291 295 295 295 297 297 299 299 302 303 304 305 304 311 307 307 310 309 313 315 315 317 320 321 321 322 322 321
286 287 287 288 288 288 288 289 291 291 291 290 290 290 292 291 291 291 291 292 292 291 298 299 301 303 304 306 308 307 308 308 312 312 314 317 320 321 320 321 321 321 321
285 286 287 287 287 287 288 289 288 292 292 291 290 290 290 290 290 290 291 290 290 291 296 298 300 303 305 308 311 307 308 311 311 313 315 318 320 320 317 320 320 321 320
286 287 287 287 288 289 290 290 290 289 289 291 292 291 291 290 290 289 290 290 293 293 295 299 300 303 306 307 310 309 308 308 312 315 319 320 320 320 319 319 320 320 321
286 287 288 289 291 292 293 293 292 292 291 291 293 293 291 290 290 289 289 292 293 294 296 299 302 303 304 306 311 311 308 308 310 315 319 319 319 318 318 319 319 301 307
288 288 289 290 291 291 291 291 291 291 291 291 292 294 295 291 291 291 292 292 293 295 297 299 302 303 303 306 309 310 310 309 312 315 318 320 319 320 318 317 317 317 317
288 289 287 289 288 288 289 288 289 289 289 290 291 293 286 292 291 291 291 292 293 295 298 300 301 303 304 307 308 308 309 310 313 314 316 317 319 318 319 319 318 319 319
288 287 287 286 286 286 286 287 288 287 287 288 289 291 286 291 292 292 292 292 294 296 299 300 299 302 302 305 307 308 309 310 313 313 316 317 318 318 319 319 319 319 319
286 285 285 285 286 285 285 285 285 286 286 286 287 288 289 292 292 292 292 293 294 296 298 300 300 303 303 304 308 309 305 306 311 310 313 317 318 319 320 319 319 319 318
285 285 284 284 284 284 284 284 284 284 284 285 286 286 287 289 293 293 294 294 294 295 297 298 300 301 301 302 306 308 307 305 308 310 313 317 318 314 319 319 319 319 318
283 283 284 284 283 282 282 282 283 283 284 284 284 285 286 287 288 292 295 296 296 296 297 298 299 300 301 302 305 305 297 290 300 292 308 317 319 320 319 319 317 315 314
282 282 283 283 282 282 282 281 281 282 282 283 283 284 284 285 286 288 289 296 296 297 297 298 298 300 301 303 304 296 290 289 297 288 306 318 319 318 317 315 314 315 315
Wind_Speed
5 5 5 5 6 6 7 8 8 8 9 10 9 9 9 9 10 8 8 8 8 9 9 9 10 9 8 9 8 8 9 10 12 10 14 15 14 14 12 10 11 11 9
5 4 3 4 5 6 7 8 8 10 10 10 10 11 11 12 11 10 10 10 11 11 11 11 12 8 10 11 10 11 12 12 11 14 14 14 14 12 11 10 8 7 7
4 2 1 3 4 6 7 7 7 8 9 10 12 13 13 13 14 13 13 13 13 13 12 13 13 12 12 11 12 12 10 10 11 10 10 12 12 11 10 7 6 7 5
6 5 5 5 5 6 7 9 9 9 11 12 13 14 15 15 15 15 15 15 15 14 14 13 13 14 14 14 13 14 13 11 12 10 11 11 12 12 8 9 9 6 8
8 7 6 7 7 7 8 9 10 10 11 12 14 15 16 16 14 17 17 17 16 16 15 13 14 14 15 15 13 14 14 13 10 10 11 11 11 10 13 11 12 11 9
7 7 7 7 8 8 9 10 10 12 12 13 15 16 17 14 16 16 18 17 17 17 15 15 14 13 14 17 18 20 19 15 13 11 11 12 12 10 10 10 9 5 4
8 8 9 10 11 12 12 13 13 14 14 16 17 17 18 18 14 16 17 19 18 17 16 14 14 12 12 15 15 15 16 18 21 15 16 14 11 10 8 6 4 2 2
11 12 12 13 14 15 15 16 16 15 16 16 18 18 19 16 14 16 17 19 19 18 17 16 15 14 13 13 15 18 19 18 17 11 15 15 12 9 8 4 6 5 5
12 13 14 14 15 16 17 17 16 17 17 18 18 19 20 19 17 15 15 18 18 19 18 17 16 15 11 10 13 17 20 17 9 7 4 2 8 12 9 6 8 11 8
14 14 15 15 16 16 17 18 17 16 17 15 17 17 19 19 19 15 15 13 17 14 14 15 12 14 9 10 12 17 17 15 11 8 7 6 7 11 17 11 12 9 6
14 15 15 15 16 16 16 15 15 16 16 15 15 14 16 17 16 14 14 15 14 14 13 13 12 10 11 11 14 15 16 7 10 6 1 4 5 5 7 9 9 7 6
15 15 15 15 12 12 16 15 15 13 14 16 16 15 12 14 15 16 16 17 17 11 9 6 7 10 9 12 9 18 11 7 6 4 1 4 5 7 6 8 7 5 2
14 14 14 15 13 13 13 13 12 11 12 12 10 10 10 10 11 11 14 16 14 10 10 10 9 7 10 10 14 14 10 8 7 4 8 9 8 6 5 7 6 6 5
15 15 14 14 13 13 10 9 10 10 10 10 10 10 10 9 9 7 7 6 8 8 10 10 11 11 10 7 4 7 4 10 5 4 4 6 4 4 7 7 7 7 5
13 12 12 10 12 12 11 10 9 11 10 10 10 10 9 10 8 8 5 4 7 8 5 7 9 8 6 4 5 4 3 4 3 4 6 6 7 9 8 6 6 5 6
12 9 9 9 9 9 9 11 13 19 22 22 24 19 12 18 17 17 21 10 7 8 7 7 7 7 7 7 6 4 3 5 6 5 6 7 9 9 8 7 6 6 6
11 11 9 10 8 9 9 9 11 11 13 18 20 21 22 22 19 14 14 9 8 5 6 7 8 8 7 7 8 5 5 5 3 5 10 8 7 7 6 7 6 5 5
12 18 9 8 8 9 9 9 8 9 11 11 9 14 16 19 19 15 14 9 6 6 7 7 8 8 7 8 7 7 4 3 3 10 9 7 6 6 6 6 6 7 7
9 8 8 8 9 10 8 8 8 8 9 10 10 10 10 15 14 10 10 7 6 7 7 8 9 8 6 7 7 6 5 2 4 9 7 5 5 5 5 5 5 3 4
8 13 10 7 7 7 7 7 7 8 8 8 8 8 9 1 2 3 4 5 6 7 8 8 6 7 7 7 5 4 5 5 6 8 6 5 5 4 4 5 5 6 6
7 7 8 6 6 7 7 7 7 7 8 8 8 8 8 5 2 1 2 4 4 8 9 7 5 4 3 5 4 4 5 3 5 5 6 6 6 6 5 4 5 5 5
6 7 7 7 7 7 7 7 7 8 8 8 9 9 7 4 4 2 2 3 6 6 7 6 6 5 3 4 4 4 3 2 2 4 5 6 6 5 5 6 6 5 5
7 7 8 7 8 9 8 7 8 9 9 9 9 9 9 6 3 3 2 2 3 3 4 6 6 7 4 4 3 3 2 2 1 3 3 5 5 5 6 7 7 6 6
8 8 10 8 8 8 8 8 8 10 10 9 9 9 9 8 7 3 3 2 3 4 6 6 6 7 5 4 5 4 3 2 4 4 5 4 6 6 7 7 7 7 4
9 9 10 10 9 9 9 9 9 10 10 9 10 9 9 9 8 8 3 3 3 4 5 5 7 11 13 11 9 6 2 3 5 6 8 7 7 9 9 7 7 5 4
10 10 10 9 10 10 10 10 10 10 10 10 10 10 10 9 9 8 8 5 3 5 6 5 7 10 12 10 11 5 1 3 6 6 8 7 7 8 7 6 5 3 4
Wind_Direction
93 95 110 129 151 168 186 192 196 198 203 206 206 210 217 222 222 222 236 251 253 263 269 267 273 276 277 278 275 265 262 269 269 268 270 272 272 278 277 249 244 236 215
71 88 117 153 177 197 214 217 212 218 218 226 226 228 230 232 231 228 235 238 243 250 258 264 267 276 279 279 276 279 277 272 269 271 271 278 270 277 277 263 248 235 225
61 86 243 269 283 278 280 280 267 262 256 247 240 238 240 239 237 233 234 236 240 246 252 261 266 271 273 279 279 274 262 263 270 271 268 270 267 266 255 245 244 241 234
20 4 341 326 308 296 289 285 280 273 269 264 261 260 258 254 246 243 241 240 240 244 246 248 256 262 270 276 276 278 275 270 267 260 261 260 265 263 245 258 236 222 223
18 15 5 351 343 326 309 300 292 283 276 276 276 270 264 259 253 245 243 242 240 241 240 240 246 254 263 267 275 278 273 269 262 257 254 252 257 246 245 253 246 236 211
3 354 347 337 321 307 298 296 294 293 290 285 276 271 268 262 257 237 246 251 245 239 239 238 245 246 252 250 250 249 262 269 271 266 257 248 244 236 243 237 221 192 191
338 326 316 308 302 302 298 293 287 283 281 276 275 272 269 266 250 246 240 253 255 238 237 237 242 252 246 270 271 243 240 243 239 255 259 256 236 218 206 190 192 198 179
320 315 310 307 301 298 295 290 288 284 280 277 274 272 271 268 249 239 236 251 255 248 248 239 236 244 256 276 281 277 271 271 265 244 244 246 228 208 194 196 162 201 140
307 304 303 301 297 293 288 287 286 285 282 278 276 275 272 272 267 249 246 263 259 255 243 239 234 240 251 239 270 273 271 267 260 243 167 308 227 176 174 140 196 198 172
307 306 302 297 293 290 290 289 288 282 281 280 279 277 277 277 270 253 250 266 269 264 244 240 224 245 249 243 254 266 264 264 250 217 188 166 200 202 195 191 184 189 168
305 301 296 294 293 289 286 283 284 284 283 283 282 277 275 274 273 267 253 260 259 264 251 239 240 218 236 245 227 261 251 255 207 195 247 14 36 221 180 200 197 163 171
300 295 293 292 289 291 292 289 287 287 280 279 279 279 276 277 269 269 256 250 267 260 254 251 261 252 253 262 236 241 230 203 176 178 135 272 235 228 189 192 174 170 163
297 295 295 300 297 287 285 284 283 280 277 281 280 280 279 280 277 287 259 251 248 247 253 257 256 267 267 274 238 234 195 182 198 169 224 226 221 216 170 169 172 180 185
303 305 305 297 296 289 279 276 275 274 273 272 273 273 279 278 275 280 300 271 243 252 247 248 251 248 255 260 227 213 204 177 178 194 209 223 188 207 196 176 176 180 195
298 293 292 291 291 292 283 277 272 268 263 271 272 276 279 276 283 305 279 306 335 313 286 264 253 236 224 245 180 170 203 158 155 215 237 219 196 196 187 180 191 173 207
297 296 294 292 287 284 286 289 262 256 264 261 261 257 266 260 268 266 279 273 294 319 254 253 257 235 224 209 194 164 178 201 196 205 229 227 204 191 172 180 182 200 202
292 291 289 289 286 286 289 290 299 300 265 262 258 260 257 260 262 255 255 254 247 224 263 249 245 244 222 221 194 161 163 181 205 225 228 222 214 193 183 179 183 184 194
292 291 288 286 285 286 286 287 286 290 299 305 268 249 257 257 257 250 240 235 231 217 242 247 247 236 236 232 204 174 152 153 218 231 226 215 198 186 182 183 181 197 202
298 294 293 290 288 293 299 296 293 290 289 291 298 291 258 251 255 237 216 223 213 215 228 233 240 240 232 243 213 178 137 202 242 251 220 189 184 178 176 180 181 213 192
303 300 304 314 317 323 320 324 321 320 316 313 315 319 329 227 239 205 195 203 209 225 220 227 235 224 224 231 204 178 139 209 202 230 224 194 189 196 204 204 202 191 198
323 328 327 331 337 334 334 332 329 328 323 321 323 328 330 311 319 291 209 199 218 215 214 201 216 190 214 190 172 156 141 243 219 252 250 222 204 210 212 210 209 199 186
344 345 348 348 342 345 341 336 336 336 332 332 332 336 335 331 328 295 241 213 208 226 237 216 215 214 174 240 176 166 157 190 198 203 228 224 209 204 204 198 194 186 185
357 356 2 358 0 353 351 347 348 347 344 342 340 341 346 338 330 326 296 224 242 232 211 237 214 230 197 226 227 235 204 305 4 351 276 220 201 202 202 199 194 181 184
7 9 13 6 4 358 358 353 352 352 349 349 348 346 345 344 338 330 304 220 209 233 224 220 237 225 237 230 230 231 224 265 300 304 319 256 218 192 209 201 181 166 164
13 13 14 13 5 2 356 359 357 357 356 355 350 349 347 348 349 344 287 289 214 212 218 220 229 232 235 237 245 233 260 54 307 322 295 257 238 201 189 178 163 164 180
21 19 17 12 10 7 5 2 1 359 -0 357 355 350 349 349 347 344 342 315 240 223 217 212 219 229 237 236 236 240 291 304 311 301 286 230 196 175 164 166 178 197 204